Showing default

CYGFM01, 41887

Orbit data source: Space-Track

CYGFM01, 41887 is an American payload satellite in LEO that was launched on Thu, 15 Dec 2016 UTC via a PEGASUS XL launch vehicle from the Pegasus Launch, Eastern Range Air Space (ERAS). Payload-class satellites include a variety of spacecraft equipped with specific instruments for various scientific and technological missions. These include communications satellites like Starlink; space stations such as the ISS; scientific satellites like the Hubble; Earth observation satellites from companies like Planet Labs, Umbra, and HawkEye 360; GPS; miniature CubeSats for education and research; and military/defense satellites.

Loading next visibility...
Identifier
41887, 2016-078D
Orbit
LEO
Country
Flag of USUS
Related business
Manufacturer
SST-US
Mission
Extended mission Civil Earth Obs Sci
Bus & Motor
CYGNSS, Unknown motor
Mass
29 kg wet, 29 kg dry
Launch date (UTC)
2016-12-15 (9 years ago)
Launch vehicle
PEGASUS XL
Launch site
Pegasus Launch, Eastern Range Air Space (ERAS)
Object type
Payload
Rocket body
Debris
Shape & HBR
Half Hex Cyl + 2 Pan, 2.5 m
Radar Cross Section
0.450 m², Medium (>0.1 m² and < 1m²)

Expand to show TLE details & history
Last TLE update: 18 hours ago

TLE from 18 hours ago
0 CYGFM01
1 41887U 16078D   25291.03181529  .00031190  00000-0  63125-3 0  9992
2 41887  34.9436  52.9835 0009222  14.7878 345.3111 15.45387127491073
Epoch: 2025-10-18T00:45Z
TLE epoch observation values (Epoch: 2025-10-18T00:45:48.841Z)
Latitude
-0°
Longitude
14.76133°
Altitude
423.06 km
Speed
7.663 km/s
True Right ascension
03h 31m 56s
True Declination
0° 00' 00"
Sunlit
Object was in full shadow at epoch
Visualization orbit readout
Latitude
Unknown
Longitude
Unknown
Altitude
Unknown
Speed
Unknown
Apparent Right ascension
Unknown
Apparent Declination
Unknown
Sunlit
N/A
Visualization observer readout
Local Sidereal Time
13:26:04
Azimuth
Unknown
Elevation
Unknown
Doppler factor
Unknown
Orbital elements
Apogee altitude
439.813 km
Perigee altitude
427.25 km
Semi-major axis
6,811.669 km
Eccentricity
0.00092
Inclination
34.9436°
RAAN
52.9835°
Arg. of periapsis
14.7878°
True anomaly
345.28427°
Mean anomaly
345.3111°
Eccentric anomaly
345.29769°
Mean motion
3.86067 °/min
Orbital period
93.25 mins
BSTAR
0.00063125
Loading maneuver chart data...
Computing Atmospheric mass density...
Loading historical data...
Loading historical data...
Loading historical data...
Loading historical data...
Loading historical data...
Loading historical data...
Loading historical data...

Documentation

Showing up to 5 results
|